Regional Weather Roundup
Issued by NWS Mt. Holly, NJ

Home | Current Version | Previous Version | Text Only | Print | Product List | Glossary On
Versions: 1 2 3 4 5 6 7 8 9 10 11 12 13 14 15 16 17 18 19 20 21 22 23 24 25 26 27 28 29 30 31 32 33 34 35 36 37 38 39 40 41 42 43 44 45 46 47 48 49 50
000
ASUS41 KPHI 280112
RWRPHI

REGIONAL WEATHER ROUNDUP
NATIONAL WEATHER SERVICE MOUNT HOLLY NJ
900 PM EDT THU AUG 27 2015

NOTE:  "FAIR" INDICATES FEW OR NO CLOUDS BELOW 12,000 FEET WITH NO
SIGNIFICANT WEATHER AND/OR OBSTRUCTIONS TO VISIBILITY.

 * = STATION DOES NOT REPORT PRECIPITATION (E.G. RAIN, SNOW, ETC.)
        OR FOG.

NJZ015>026-280200-
SOUTHERN NEW JERSEY

CITY           SKY/WX    TMP DP  RH WIND       PRES   REMARKS
POMONA         PTCLDY    72  56  57 CALM      30.10R
MILLVILLE      PTCLDY    65  58  78 W5        30.11R
WRIGHTSTOWN    CLEAR     66  55  67 N5        30.08R
MOUNT HOLLY    CLEAR     67  55  65 CALM      30.10R
TRENTON        CLEAR     69  55  60 N3        30.10R

$$
NJZ001>014-280200-
NORTHERN NEW JERSEY

CITY           SKY/WX    TMP DP  RH WIND       PRES   REMARKS
SUSSEX         CLEAR     59  55  87 CALM      30.12R
ANDOVER*         N/A     59  57  93 CALM      30.13R
MORRISTOWN     PTCLDY    66  55  68 NW6       30.10R
NEWARK         PTCLDY    73  52  47 NW8       30.09R
TETERBORO      CLEAR     70  50  49 NW6       30.08R
CALDWELL       CLEAR     66  53  63 CALM      30.10R
SOMERVILLE     CLEAR     63  55  75 CALM      30.09R
ALLAIRE*       PTCLDY    68  52  56 NW6       30.10R
TOMS RIVER*    PTCLDY    66  55  68 N5        30.10R

$$
PAZ043-044-047-054-055-060>062-066>071-280200-
EASTERN PENNSYLVANIA

CITY           SKY/WX    TMP DP  RH WIND       PRES   REMARKS
PHILADELPHIA   PTCLDY    75  52  44 NW7       30.12R
NORTH PHILA    CLEAR     70  53  54 N5        30.12R
BLUE BELL      CLEAR     61  59  94 CALM      30.11R
DOYLESTOWN     CLEAR     63  56  78 CALM      30.12R
QUAKERTOWN*    CLEAR     66  54  63 N3        30.13R
POTTSTOWN      CLEAR     64  56  75 CALM      30.14R
LANCASTER      CLOUDY    68  56  65 W3        30.13R
COATESVILLE    CLEAR     64  55  72 NW5       30.14R
READING        CLEAR     67  54  63 NW6       30.12R
ALLENTOWN      CLEAR     65  54  67 CALM      30.12R
MOUNT POCONO   MOCLDY    56  53  90 NW3       30.16R
HAZLETON       CLOUDY    59  52  77 CALM      30.19R
WILKES BARRE   CLOUDY    67  53  61 NW3       30.14R

$$
DEZALL-MDZ008-012-015-019-020-280200-
DELAWARE AND EASTERN MARYLAND

CITY           SKY/WX    TMP DP  RH WIND       PRES   REMARKS
WILMINGTON     CLEAR     67  54  63 NW6       30.12R
DOVER          PTCLDY    70  59  68 NW6       30.10R
GEORGETOWN     MOCLDY    69  59  70 NW3       30.12R
EASTON         PTCLDY    68  61  77 CALM      30.15R
PATUXENT       MOCLDY    63  60  90 SW3       30.11R
OCEAN CITY     MOCLDY    70  62  76 CALM      30.10R
WALLOPS ISLAND MOCLDY    71  62  73 CALM      30.11R
CAMBRIDGE      CLEAR     64  57  77 CALM      30.11R
SALISBURY      MOCLDY    67  60  78 CALM      30.11R

$$
PAZ001-021-NYZ056-072-MDZ011-DCZ001-280200-
OTHER NEARBY LOCATIONS

CITY           SKY/WX    TMP DP  RH WIND       PRES   REMARKS
HARRISBURG     MOCLDY    68  59  73 CALM      30.13R
STATE COLLEGE  CLOUDY    64  57  77 CALM      30.16R
WILLIAMSPORT   CLOUDY    66  59  78 CALM      30.13R
BINGHAMTON     PTCLDY    59  53  80 NW5       30.16R
NEW YORK CITY  CLEAR     74  50  42 NW6       30.12R
BALTIMORE      PTCLDY    71  57  61 VRB3      30.12R
WASHINGTON DC  PTCLDY    75  56  51 NE7       30.12R

$$



USA.gov is the U.S. government's official web portal to all federal, state and local government web resources and services.